Volver al catálogo

STARLINK-6107

ActivoComunicacionesVLEO
NORAD 56117·PAYLOAD·🇺🇸 United States

Lanzado Mar 29, 2023 desde Cape Canaveral Space Force Station

Loading…

Próximos Pases (próximas 24 horas)

TLE

ActualizadoSource: CelesTrak SupGP

Época: Sep 14, 2026, 21:57 UTC

1 56117C 23046AA  26257.91506944 -.00022119  00000+0 -80126-3 0  2578
2 56117  42.9993 158.4794 0001284 258.8905 266.6617 15.27584731    16

Sigue STARLINK-6107 en tiempo real con AllMySat

Download on the App Store